| time (UTC) | temp F | wind direction | speed MPH | gust MPH | rain 1hr in | rain 24hr in | rain mn in | humidity % | barometer mb |
| 20260509131536 | 77 | 190 | 5.0 | 9.0 | 0.00 | 0.00 | 0.00 | 36 | 1014.5 |
| 20260509130029 | 77 | 252 | 2.0 | 4.0 | 0.00 | 0.00 | 0.00 | 37 | 1014.6 |
| 20260509124529 | 76 | 232 | 2.0 | 4.0 | 0.00 | 0.00 | 0.00 | 36 | 1014.8 |
| 20260509123026 | 76 | 252 | 3.0 | 8.0 | 0.00 | 0.00 | 0.00 | 41 | 1014.8 |
| 20260509121528 | 76 | 251 | 3.0 | 8.0 | 0.00 | 0.00 | 0.00 | 39 | 1014.9 |
| 20260509120020 | 78 | 327 | 2.0 | 6.0 | 0.00 | 0.00 | 0.00 | 36 | 1015.1 |
| 20260509114517 | 77 | 140 | 5.0 | 8.0 | 0.00 | 0.00 | 0.00 | 35 | 1015.3 |
| 20260509113014 | 76 | 248 | 1.0 | 5.0 | 0.00 | 0.00 | 0.00 | 45 | 1015.6 |
| 20260509111510 | 74 | 277 | 4.0 | 8.0 | 0.00 | 0.00 | 0.00 | 46 | 1015.8 |
| 20260509110006 | 74 | 253 | 2.0 | 8.0 | 0.00 | 0.00 | 0.00 | 47 | 1016.1 |
| 20260509104504 | 73 | 344 | 2.0 | 7.0 | 0.00 | 0.00 | 0.00 | 47 | 1016.4 |
| 20260509103001 | 73 | 259 | 3.0 | 6.0 | 0.00 | 0.00 | 0.00 | 48 | 1016.8 |
| 20260509101600 | 73 | 257 | 0.0 | 3.0 | 0.00 | 0.00 | 0.00 | 46 | 1017.0 |
| 20260509100055 | 71 | 86 | 1.0 | 5.0 | 0.00 | 0.00 | 0.00 | 50 | 1017.2 |
| 20260509094551 | 69 | 307 | 0.0 | 4.0 | 0.00 | 0.00 | 0.00 | 56 | 1017.3 |
| 20260509093048 | 68 | 269 | 2.0 | 5.0 | 0.00 | 0.00 | 0.00 | 57 | 1017.6 |
| 20260509091544 | 67 | 76 | 2.0 | 4.0 | 0.00 | 0.00 | 0.00 | 58 | 1017.8 |
| 20260509090051 | 66 | 331 | 2.0 | 8.0 | 0.00 | 0.00 | 0.00 | 59 | 1018.0 |
| 20260509084542 | 65 | 26 | 2.0 | 5.0 | 0.00 | 0.00 | 0.00 | 61 | 1018.3 |
| 20260509083047 | 65 | 13 | 3.0 | 4.0 | 0.00 | 0.00 | 0.00 | 61 | 1018.5 |
| 20260509081533 | 64 | 355 | 4.0 | 8.0 | 0.00 | 0.00 | 0.00 | 62 | 1018.6 |
| 20260509080032 | 63 | 355 | 1.0 | 5.0 | 0.00 | 0.00 | 0.00 | 64 | 1018.6 |
| 20260509074527 | 62 | 314 | 3.0 | 5.0 | 0.00 | 0.00 | 0.00 | 65 | 1018.9 |
| 20260509073023 | 61 | 321 | 4.0 | 8.0 | 0.00 | 0.00 | 0.00 | 67 | 1019.0 |
| 20260509071520 | 60 | 5 | 3.0 | 5.0 | 0.00 | 0.00 | 0.00 | 67 | 1019.1 |
| 20260509070017 | 59 | 321 | 3.0 | 5.0 | 0.00 | 0.00 | 0.00 | 70 | 1019.1 |
| 20260509064517 | 58 | 302 | 3.0 | 4.0 | 0.00 | 0.00 | 0.00 | 71 | 1019.1 |
| 20260509063016 | 57 | 279 | 3.0 | 6.0 | 0.00 | 0.00 | 0.00 | 73 | 1019.1 |
| 20260509061519 | 56 | 288 | 1.0 | 8.0 | 0.00 | 0.00 | 0.00 | 78 | 1019.1 |
| 20260509060014 | 55 | 331 | 2.0 | 3.0 | 0.00 | 0.00 | 0.00 | 80 | 1019.1 |
| 20260509054514 | 54 | 344 | 2.0 | 4.0 | 0.00 | 0.00 | 0.00 | 80 | 1019.3 |
| 20260509053013 | 53 | 275 | 1.0 | 2.0 | 0.00 | 0.00 | 0.00 | 81 | 1019.4 |
| 20260509051511 | 52 | 274 | 0.0 | 0.0 | 0.00 | 0.00 | 0.00 | 81 | 1019.3 |
| 20260509050010 | 51 | 274 | 0.0 | 0.0 | 0.00 | 0.00 | 0.00 | 82 | 1019.1 |
| 20260509044509 | 51 | 274 | 0.0 | 0.0 | 0.00 | 0.00 | 0.00 | 82 | 1019.1 |
| 20260509043008 | 51 | 275 | 0.0 | 0.0 | 0.00 | 0.00 | 0.00 | 82 | 1019.0 |
| 20260509041507 | 50 | 274 | 0.0 | 0.0 | 0.00 | 0.00 | 0.00 | 82 | 1018.9 |
| 20260509040006 | 50 | 273 | 0.0 | 0.0 | 0.00 | 0.00 | 0.00 | 82 | 1018.9 |
| 20260509034505 | 51 | 273 | 0.0 | 1.0 | 0.00 | 0.00 | 0.00 | 82 | 1018.9 |
| 20260509033004 | 51 | 273 | 0.0 | 0.0 | 0.00 | 0.00 | 0.00 | 82 | 1018.9 |
| 20260509031503 | 51 | 270 | 0.0 | 0.0 | 0.00 | 0.00 | 0.00 | 82 | 1018.8 |
| 20260509030003 | 50 | 270 | 0.0 | 0.0 | 0.00 | 0.00 | 0.00 | 82 | 1018.7 |
| 20260509024501 | 51 | 270 | 0.0 | 0.0 | 0.00 | 0.00 | 0.00 | 82 | 1018.7 |
| 20260509023059 | 51 | 279 | 0.0 | 3.0 | 0.00 | 0.00 | 0.00 | 82 | 1018.7 |
| 20260509021557 | 51 | 280 | 0.0 | 0.0 | 0.00 | 0.00 | 0.00 | 81 | 1018.6 |
| 20260509020056 | 52 | 278 | 0.0 | 0.0 | 0.00 | 0.00 | 0.00 | 81 | 1018.6 |
| 20260509014600 | 53 | 278 | 0.0 | 0.0 | 0.00 | 0.00 | 0.00 | 81 | 1018.5 |
| 20260509013054 | 53 | 278 | 0.0 | 0.0 | 0.00 | 0.00 | 0.00 | 81 | 1018.3 |
| 20260509011549 | 53 | 275 | 0.0 | 3.0 | 0.00 | 0.00 | 0.00 | 81 | 1018.2 |
| 20260509010053 | 54 | 220 | 0.0 | 0.0 | 0.00 | 0.00 | 0.00 | 80 | 1018.1 |
| 20260509004545 | 54 | 220 | 0.0 | 0.0 | 0.00 | 0.00 | 0.00 | 79 | 1018.3 |
| 20260509003048 | 54 | 220 | 0.0 | 0.0 | 0.00 | 0.00 | 0.00 | 79 | 1018.2 |
| 20260509001541 | 55 | 220 | 0.0 | 0.0 | 0.00 | 0.00 | 0.00 | 78 | 1018.1 |
| 20260509000039 | 55 | 220 | 0.0 | 0.0 | 0.00 | 0.00 | 0.00 | 78 | 1017.9 |
| 20260508234538 | 55 | 220 | 0.0 | 1.0 | 0.00 | 0.00 | 0.00 | 77 | 1018.0 |
| 20260508233035 | 56 | 220 | 0.0 | 0.0 | 0.00 | 0.00 | 0.00 | 77 | 1017.9 |
| 20260508231533 | 56 | 221 | 0.0 | 1.0 | 0.00 | 0.00 | 0.00 | 76 | 1017.8 |
| 20260508230040 | 57 | 221 | 0.0 | 3.0 | 0.00 | 0.00 | 0.00 | 75 | 1017.8 |
| 20260508224537 | 57 | 220 | 0.0 | 1.0 | 0.00 | 0.00 | 0.00 | 74 | 1017.9 |
| 20260508223027 | 58 | 220 | 0.0 | 0.0 | 0.00 | 0.00 | 0.00 | 73 | 1017.9 |
| 20260508221538 | 59 | 220 | 0.0 | 2.0 | 0.00 | 0.00 | 0.00 | 71 | 1017.8 |
| 20260508220019 | 60 | 177 | 0.0 | 2.0 | 0.00 | 0.00 | 0.00 | 69 | 1017.7 |
| 20260508214518 | 60 | 177 | 1.0 | 3.0 | 0.00 | 0.00 | 0.00 | 68 | 1017.6 |
| 20260508213022 | 60 | 180 | 0.0 | 2.0 | 0.00 | 0.00 | 0.00 | 68 | 1017.6 |
| 20260508211516 | 62 | 181 | 2.0 | 3.0 | 0.00 | 0.00 | 0.00 | 64 | 1017.4 |
| 20260508210014 | 63 | 118 | 1.0 | 10.0 | 0.00 | 0.00 | 0.00 | 63 | 1017.2 |
| 20260508204514 | 63 | 99 | 3.0 | 6.0 | 0.00 | 0.00 | 0.00 | 62 | 1017.1 |
| 20260508203013 | 64 | 173 | 2.0 | 4.0 | 0.00 | 0.00 | 0.00 | 62 | 1016.9 |
| 20260508201513 | 64 | 149 | 2.0 | 10.0 | 0.00 | 0.00 | 0.00 | 60 | 1016.7 |
| 20260508200011 | 65 | 207 | 5.0 | 10.0 | 0.00 | 0.00 | 0.00 | 58 | 1016.5 |
| 20260508194511 | 66 | 148 | 6.0 | 10.0 | 0.00 | 0.00 | 0.00 | 56 | 1016.2 |
| 20260508193010 | 66 | 175 | 6.0 | 14.0 | 0.00 | 0.00 | 0.00 | 54 | 1016.2 |
| 20260508191510 | 67 | 160 | 6.0 | 15.0 | 0.00 | 0.00 | 0.00 | 53 | 1015.9 |
| 20260508190009 | 67 | 172 | 6.0 | 11.0 | 0.00 | 0.00 | 0.00 | 51 | 1015.6 |
| 20260508184509 | 67 | 126 | 5.0 | 14.0 | 0.00 | 0.00 | 0.00 | 51 | 1015.3 |
| 20260508183110 | 67 | 146 | 7.0 | 12.0 | 0.00 | 0.00 | 0.00 | 48 | 1015.1 |
| 20260508181514 | 68 | 167 | 7.0 | 13.0 | 0.00 | 0.00 | 0.00 | 47 | 1014.9 |
| 20260508180005 | 68 | 161 | 7.0 | 11.0 | 0.00 | 0.00 | 0.00 | 47 | 1014.7 |
| 20260508174504 | 68 | 134 | 6.0 | 14.0 | 0.00 | 0.00 | 0.00 | 47 | 1014.6 |
| 20260508173003 | 68 | 173 | 10.0 | 20.0 | 0.00 | 0.00 | 0.00 | 46 | 1014.6 |
| 20260508171503 | 68 | 193 | 12.0 | 22.0 | 0.00 | 0.00 | 0.00 | 46 | 1014.4 |
| 20260508170002 | 68 | 217 | 14.0 | 22.0 | 0.00 | 0.00 | 0.00 | 49 | 1014.4 |
| 20260508164503 | 68 | 186 | 13.0 | 24.0 | 0.00 | 0.00 | 0.00 | 48 | 1014.3 |
| 20260508163100 | 68 | 179 | 14.0 | 27.0 | 0.00 | 0.00 | 0.00 | 49 | 1014.1 |
| 20260508161602 | 69 | 171 | 13.0 | 30.0 | 0.00 | 0.00 | 0.00 | 49 | 1014.0 |
| 20260508160059 | 70 | 161 | 14.0 | 24.0 | 0.00 | 0.00 | 0.00 | 47 | 1013.9 |
| 20260508154601 | 69 | 188 | 13.0 | 21.0 | 0.00 | 0.00 | 0.00 | 47 | 1013.8 |
| 20260508153058 | 69 | 157 | 10.0 | 22.0 | 0.00 | 0.00 | 0.00 | 47 | 1013.7 |
| 20260508151558 | 69 | 174 | 11.0 | 22.0 | 0.00 | 0.00 | 0.00 | 47 | 1013.8 |
| 20260508150056 | 69 | 217 | 12.0 | 24.0 | 0.00 | 0.00 | 0.00 | 48 | 1013.9 |
| 20260508144554 | 69 | 215 | 13.0 | 23.0 | 0.00 | 0.00 | 0.00 | 48 | 1013.9 |
| 20260508143053 | 70 | 150 | 11.0 | 19.0 | 0.00 | 0.00 | 0.00 | 47 | 1014.0 |
| 20260508141552 | 71 | 188 | 7.0 | 19.0 | 0.00 | 0.00 | 0.00 | 47 | 1014.1 |
| 20260508140051 | 71 | 200 | 11.0 | 18.0 | 0.00 | 0.00 | 0.00 | 46 | 1014.0 |
| 20260508134549 | 71 | 220 | 9.0 | 21.0 | 0.00 | 0.00 | 0.00 | 46 | 1014.2 |
| 20260508133048 | 71 | 184 | 9.0 | 19.0 | 0.00 | 0.00 | 0.00 | 46 | 1014.3 |